Location: Newark
(41.7833°N, 12.7667°E)
Time: 06:36:13
(UTC+00:00)

Tiangong 2 - Visible Passes

Search period start: 19 July 2019 00:00
Search period end: 29 July 2019 00:00
Orbit: 185 x 377 km, 42.8° (Epoch: 18 July)

Date Brightness Start Highest point End Pass type
(mag) Time Alt. Az. Time Alt. Az. Time Alt. Az.
19 Jul 1.5 20:08:17 10° W 20:11:18 45° SSW 20:12:13 33° SSE visible
20 Jul 2.2 20:10:05 10° W 20:12:52 29° SSW 20:13:32 26° S visible
21 Jul 2.9 20:12:04 10° WSW 20:14:19 18° SSW 20:14:50 17° SSW visible
22 Jul 3.6 20:14:45 10° SW 20:15:39 11° SW 20:16:08 11° SSW visible
